ESOKEPPO

Guest
Details From ESOK - Karlstad
To EPPO - LAWICA
Flight Number -
Tags decoded
Created
Modified
Stats Distance 476 nm / 882 km
Max Altitude 0 ft / 0 m
Waypoints 6
Social Downloads 0
Likes 0
Share VATSIM

Download

Looking for another format? Having issues loading an existing format? Contact us
Advertisement - Login to hide

Notes

Requested: ESOK OGIRO M852 LALIL L617 ROE L996 DENKO L619 VABAT EPPO Unmatched points: OGIRO M852 L617 L996 L619

Route

ESOK LALIL ROE DENKO VABAT EPPO

ID Type Via Altitude Latitude Longitude Leg Dist Tot Dist Heading (true) Name
O ESOK APT - 0 ft / 0 m 59.44863˚ 13.33854˚ - 0 nm - Karlstad
LALIL FIX - 0 ft / 0 m 57.77347˚ 12.17719˚ 106 nm 106 nm 200° / 199° -
ROE VOR - 0 ft / 0 m 55.06558˚ 14.75869˚ 183 nm 290 nm 151° / 153° RONNE VOR-DME
DENKO FIX - 0 ft / 0 m 52.81695˚ 15.83250˚ 140 nm 431 nm 164° / 165° -
VABAT FIX - 0 ft / 0 m 52.54333˚ 16.19361˚ 21 nm 452 nm 141° / 141° -
O EPPO APT - 0 ft / 0 m 52.42157˚ 16.82355˚ 24 nm 476 nm 107° / 108° LAWICA

Altitude Profile

Advertisement - Login to hide

Weather


0- 5 10 15 20 25 30 35+ Temperature / ° C

Clouds and Precipitation
Forecast for 2018-05-23 18:00 UTC. Updated 2 hours ago

Ground ~20,000 ft ~40,000 ft Winds

ESOK

Details ICAO ESOK (KSD)
Name Karlstad
Region Sweden
Timezone Europe/Stockholm (UTC+2.0)
Stats Elevation 352 ft / 107 m (AMSL)
Location 59.448625° 13.338536°
Runways 2
Magnetic Variation 4.327° E

METAR

ESOK 231850Z 20005KT CAVOK 20/09 Q1026

Decode

TAF

Not found

Departure Runways

ID Width Length Bearing (true) Bearing (mag) Surface Threshold Offset Overrun Length
03 148 ft / 45 m 8,239 ft / 2,511 m 25.61° 21.28° Asphalt 0 ft / 0 m 100 ft / 30 m
03L 170 ft / 52 m 1,833 ft / 559 m 26.12° 21.79° Dirt 0 ft / 0 m 0 ft / 0 m
21 148 ft / 45 m 8,239 ft / 2,511 m 205.63° 201.30° Asphalt 0 ft / 0 m 100 ft / 30 m
21R 170 ft / 52 m 1,833 ft / 559 m 206.12° 201.79° Dirt 0 ft / 0 m 0 ft / 0 m

EPPO

Details ICAO EPPO (POZ)
Name LAWICA
Region Poland
Timezone Europe/Warsaw (UTC+2.0)
Stats Elevation 308 ft / 94 m (AMSL)
Location 52.421566° 16.823549°
Runways 1
Magnetic Variation 4.793° E

METAR

EPPO 231900Z 05008KT CAVOK 20/07 Q1023

Decode

TAF

TAF EPPO 231730Z 2318/2418 07010KT CAVOK TEMPO 2409/2418 07015G25KT

Decode

Destination Runways

ID Width Length Bearing (true) Bearing (mag) Surface Threshold Offset Overrun Length
11 164 ft / 50 m 8,153 ft / 2,485 m 107.57° 102.78° Asphalt 0 ft / 0 m 0 ft / 0 m
29 164 ft / 50 m 8,153 ft / 2,485 m 287.59° 282.80° Asphalt 0 ft / 0 m 0 ft / 0 m

Approach Navaids

Runway Type Ident Frequency Range Bearing (true) Bearing (mag) Slope Elevation
29 Localiser POZ 110.30 MHz 18 nm / 33 km 287.57° 282.77° - 308 ft / 94 m (AMSL)
29 Glidescope POZ 110.30 MHz 10 nm / 19 km 287.58° 282.79° 3.00° 308 ft / 94 m (AMSL)
29 DME POZ 110.30 MHz 18 nm / 33 km - - - 331 ft / 101 m (AMSL)

Popular Alternatives